Terminal Aerodrome Forecast
Issued by NWS

Home | Current Version | Previous Version | Graphics & Text | Print | Product List | Glossary On
Versions: 1 2 3 4 5 6 7 8 9 10 11 12 13 14 15
000
FTUS43 KICT 301508 AAA
TAFRSL
TAF AMD
KRSL 301508Z 3015/3112 VRB04KT 1SM BR OVC003
     FM301600 14011KT 5SM BR BKN015
     FM301800 15012KT P6SM SCT025=

USA.gov is the U.S. government's official web portal to all federal, state and local government web resources and services.